EW9593 Weather Reports


Display with metric or nautical units.
time (UTC)temp
F
wind
direction
speed
MPH
gust
MPH
rain 1hr
in
rain 24hr
in
rain mn
in
humidity
%
barometer
mb
20210921062926 76 225 0.0 2.0 0.00 0.00 0.00 89 1016.6
20210921061927 76 219 2.0 4.0 0.00 0.00 0.00 88 1016.7
20210921061025 76 234 1.0 4.0 0.00 0.00 0.00 86 1016.7
20210921060026 76 163 0.0 2.0 0.00 0.00 0.00 85 1016.5
20210921055044 77 201 1.0 3.0 0.00 0.00 0.00 85 1016.5
20210921054026 77 212 2.0 7.0 0.00 0.00 0.00 82 1016.3
20210921053025 77 204 1.0 4.0 0.00 0.00 0.00 81 1016.1
20210921052123 77 197 2.0 3.0 0.00 0.00 0.00 80 1016.2
20210921051130 77 195 2.0 4.0 0.00 0.00 0.00 78 1016.3
20210921050226 78 188 3.0 5.0 0.00 0.00 0.00 76 1016.2
20210921045243 78 178 3.0 7.0 0.00 0.00 0.00 76 1016.2
20210921044245 78 180 1.0 2.0 0.00 0.00 0.00 74 1016.0
20210921043150 79 175 1.0 3.0 0.00 0.00 0.00 71 1016.0
20210921042044 79 186 3.0 7.0 0.00 0.00 0.00 70 1015.9
20210921040853 79 185 2.0 3.0 0.00 0.00 0.00 68 1016.0
20210921035949 80 178 2.0 4.0 0.00 0.00 0.00 67 1015.9
20210921035046 80 187 3.0 5.0 0.00 0.00 0.00 66 1015.9
20210921034046 80 186 2.0 4.0 0.00 0.00 0.00 64 1015.6
20210921033143 80 186 1.0 3.0 0.00 0.00 0.00 64 1015.5
20210921032147 80 183 3.0 4.0 0.00 0.00 0.00 62 1015.3
20210921031145 81 196 1.0 4.0 0.00 0.00 0.00 61 1015.3
20210921030145 81 174 3.0 8.0 0.00 0.00 0.00 59 1015.3
20210921025145 81 186 2.0 5.0 0.00 0.00 0.00 58 1015.3
20210921024143 81 197 3.0 6.0 0.00 0.00 0.00 56 1014.9
20210921023146 81 189 2.0 5.0 0.00 0.00 0.00 55 1014.7
20210921022145 81 179 1.0 4.0 0.00 0.00 0.00 53 1014.6
20210921021144 81 180 2.0 3.0 0.00 0.00 0.00 53 1014.4
20210921020147 82 180 2.0 3.0 0.00 0.00 0.00 52 1014.5
20210921015143 82 180 1.0 2.0 0.00 0.00 0.00 51 1014.3
20210921014145 83 180 2.0 4.0 0.00 0.00 0.00 52 1014.0
20210921013144 83 180 2.0 4.0 0.00 0.00 0.00 51 1013.8
20210921012145 83 157 2.0 3.0 0.00 0.00 0.00 49 1013.8
20210921011144 84 180 2.0 3.0 0.00 0.00 0.00 48 1013.5
20210921010146 84 180 2.0 3.0 0.00 0.00 0.00 49 1013.5
20210921005243 85 165 3.0 5.0 0.00 0.00 0.00 48 1013.5
20210921004243 86 180 2.0 3.0 0.00 0.00 0.00 47 1013.5
20210921003245 87 180 1.0 2.0 0.00 0.00 0.00 45 1013.7
20210921002344 88 171 2.0 3.0 0.00 0.00 0.00 44 1013.5
20210921001344 89 187 2.0 3.0 0.00 0.00 0.00 42 1013.4
20210921000346 90 157 1.0 2.0 0.00 0.00 0.00 42 1013.3
20210920235442 91 171 3.0 5.0 0.00 0.00 0.00 40 1013.2
20210920234444 92 181 2.0 5.0 0.00 0.00 0.00 39 1013.2
20210920233446 93 159 4.0 5.0 0.00 0.00 0.00 38 1013.2
20210920232444 93 168 4.0 6.0 0.00 0.00 0.00 38 1013.2
20210920231543 94 163 4.0 6.0 0.00 0.00 0.00 38 1013.1
20210920230643 94 183 4.0 6.0 0.00 0.00 0.00 38 1013.1
20210920225643 93 208 1.0 3.0 0.00 0.00 0.00 40 1013.3
20210920224644 92 161 4.0 6.0 0.00 0.00 0.00 40 1013.2
20210920223644 93 178 2.0 5.0 0.00 0.00 0.00 38 1013.2
20210920222702 95 226 1.0 3.0 0.00 0.00 0.00 36 1013.3
20210920221747 96 186 5.0 9.0 0.00 0.00 0.00 36 1013.1
20210920220844 96 185 2.0 4.0 0.00 0.00 0.00 36 1013.1
20210920215843 96 227 1.0 7.0 0.00 0.00 0.00 36 1013.2
20210920214845 96 184 3.0 6.0 0.00 0.00 0.00 36 1013.1
20210920213844 96 173 4.0 8.0 0.00 0.00 0.00 36 1013.2
20210920212943 96 171 5.0 9.0 0.00 0.00 0.00 35 1013.3
20210920212009 95 182 4.0 9.0 0.00 0.00 0.00 36 1013.2
20210920211105 95 162 5.0 6.0 0.00 0.00 0.00 38 1013.4
20210920210047 96 186 3.0 6.0 0.00 0.00 0.00 37 1013.3
20210920205044 96 234 0.0 3.0 0.00 0.00 0.00 36 1013.4
20210920204044 97 206 3.0 11.0 0.00 0.00 0.00 37 1013.4
20210920203114 96 178 2.0 4.0 0.00 0.00 0.00 37 1013.5
20210920202143 95 268 2.0 4.0 0.00 0.00 0.00 37 1013.5
20210920201242 96 183 6.0 10.0 0.00 0.00 0.00 38 1013.7
20210920200255 95 177 4.0 9.0 0.00 0.00 0.00 38 1013.7
20210920195343 94 200 2.0 4.0 0.00 0.00 0.00 39 1013.9
20210920194344 93 253 3.0 7.0 0.00 0.00 0.00 41 1013.9
20210920193345 93 180 4.0 8.0 0.00 0.00 0.00 40 1014.1
20210920192342 94 198 3.0 8.0 0.00 0.00 0.00 41 1014.4
20210920191342 93 190 0.0 1.0 0.00 0.00 0.00 40 1014.5
20210920190343 93 207 3.0 8.0 0.00 0.00 0.00 41 1014.5
20210920185342 93 204 1.0 4.0 0.00 0.00 0.00 41 1014.7
20210920184344 93 193 5.0 14.0 0.00 0.00 0.00 41 1014.8
20210920183343 92 188 2.0 6.0 0.00 0.00 0.00 41 1015.0
20210920182342 93 177 4.0 7.0 0.00 0.00 0.00 43 1015.0
20210920181343 92 163 3.0 6.0 0.00 0.00 0.00 45 1015.0
20210920180343 91 177 6.0 10.0 0.00 0.00 0.00 45 1015.2
20210920175343 91 266 5.0 11.0 0.00 0.00 0.00 46 1015.1
20210920174441 90 187 1.0 3.0 0.00 0.00 0.00 47 1015.4
20210920173442 90 206 1.0 3.0 0.00 0.00 0.00 46 1015.5
20210920172444 89 216 1.0 8.0 0.00 0.00 0.00 49 1015.7
20210920171444 89 217 2.0 4.0 0.00 0.00 0.00 50 1015.9
20210920170458 89 254 5.0 9.0 0.00 0.00 0.00 51 1015.9
20210920165544 88 229 2.0 5.0 0.00 0.00 0.00 52 1015.9
20210920164642 88 267 1.0 3.0 0.00 0.00 0.00 54 1016.0
20210920163658 87 208 2.0 6.0 0.00 0.00 0.00 55 1015.9
20210920162744 86 238 2.0 7.0 0.00 0.00 0.00 57 1016.0
20210920161843 86 207 2.0 6.0 0.00 0.00 0.00 55 1016.0
20210920160842 87 236 2.0 5.0 0.00 0.00 0.00 54 1016.0
20210920155844 86 239 2.0 5.0 0.00 0.00 0.00 59 1015.9
20210920154941 85 226 0.0 2.0 0.00 0.00 0.00 62 1015.9
20210920153942 85 242 4.0 11.0 0.00 0.00 0.00 62 1015.8
20210920152944 84 246 2.0 5.0 0.00 0.00 0.00 63 1015.8
20210920151943 83 240 2.0 6.0 0.00 0.00 0.00 68 1015.5
20210920151042 83 246 2.0 5.0 0.00 0.00 0.00 70 1015.5
20210920150141 81 228 3.0 6.0 0.00 0.00 0.00 74 1015.5
20210920145141 81 254 3.0 7.0 0.00 0.00 0.00 75 1015.5
20210920144143 80 260 0.0 2.0 0.00 0.00 0.00 77 1015.4
20210920143143 78 259 2.0 5.0 0.00 0.00 0.00 79 1015.3
20210920142150 78 249 3.0 7.0 0.00 0.00 0.00 82 1015.2
20210920141244 78 245 1.0 3.0 0.00 0.00 0.00 84 1015.2
20210920140242 77 228 1.0 2.0 0.00 0.00 0.00 86 1015.2
20210920135246 76 244 4.0 10.0 0.00 0.00 0.00 88 1015.1
20210920134245 75 242 3.0 10.0 0.00 0.00 0.00 89 1015.0
20210920133259 74 227 1.0 5.0 0.00 0.00 0.00 91 1015.0
20210920132344 74 242 1.0 4.0 0.00 0.00 0.00 92 1014.8
20210920131441 73 232 1.0 2.0 0.00 0.00 0.00 93 1014.9
20210920130501 72 246 1.0 3.0 0.00 0.00 0.00 95 1014.8
20210920125543 71 208 0.0 2.0 0.00 0.00 0.00 95 1014.9
20210920124604 71 246 1.0 3.0 0.00 0.00 0.00 95 1014.7
20210920123643 71 244 0.0 1.0 0.00 0.00 0.00 93 1014.7
20210920122650 71 243 1.0 5.0 0.00 0.00 0.00 93 1014.7
20210920121743 71 253 1.0 5.0 0.00 0.00 0.00 94 1014.7
20210920120841 71 251 1.0 3.0 0.00 0.00 0.00 92 1014.6
20210920115844 71 235 0.0 2.0 0.00 0.00 0.00 93 1014.5
20210920115744 71 236 1.0 2.0 0.00 0.00 0.00 93 1014.5
20210920114743 71 223 1.0 4.0 0.00 0.00 0.00 92 1014.5
20210920113745 71 252 2.0 4.0 0.00 0.00 0.00 92 1014.4
20210920112744 71 232 0.0 3.0 0.00 0.00 0.00 91 1014.4
20210920112645 71 224 1.0 3.0 0.00 0.00 0.00 91 1014.4
20210920111741 71 229 0.0 3.0 0.00 0.00 0.00 90 1014.1
20210920110743 71 232 1.0 3.0 0.00 0.00 0.00 90 1014.2
20210920105744 71 232 1.0 4.0 0.00 0.00 0.00 89 1014.1
20210920104744 71 262 1.0 5.0 0.00 0.00 0.00 88 1014.2
20210920103742 72 216 0.0 2.0 0.00 0.00 0.00 88 1014.1
20210920102742 72 233 1.0 3.0 0.00 0.00 0.00 87 1013.9
20210920101745 72 230 1.0 2.0 0.00 0.00 0.00 87 1013.8
20210920100744 72 239 2.0 4.0 0.00 0.00 0.00 85 1014.0
20210920095744 72 242 1.0 4.0 0.00 0.00 0.00 85 1014.0
20210920094842 73 225 1.0 4.0 0.00 0.00 0.00 85 1014.0
20210920093843 73 247 1.0 7.0 0.00 0.00 0.00 83 1014.1
20210920092843 73 253 2.0 4.0 0.00 0.00 0.00 84 1014.3
20210920091844 73 241 2.0 5.0 0.00 0.00 0.00 82 1014.2
20210920090843 73 228 1.0 4.0 0.00 0.00 0.00 82 1014.3
20210920085844 73 235 1.0 2.0 0.00 0.00 0.00 81 1014.2
20210920084843 74 195 0.0 1.0 0.00 0.00 0.00 80 1014.4
20210920083843 74 190 0.0 1.0 0.00 0.00 0.00 81 1014.5
20210920082942 74 203 0.0 1.0 0.00 0.00 0.00 81 1014.4
20210920081944 74 222 1.0 3.0 0.00 0.00 0.00 81 1014.5
20210920080942 74 243 1.0 4.0 0.00 0.00 0.00 80 1014.5
20210920075941 74 228 1.0 2.0 0.00 0.00 0.00 80 1014.6
20210920074944 75 225 0.0 1.0 0.00 0.00 0.00 79 1014.6
20210920073943 75 225 0.0 1.0 0.00 0.00 0.00 80 1014.6
20210920072943 75 225 0.0 1.0 0.00 0.00 0.00 79 1014.7
20210920071941 75 195 0.0 2.0 0.00 0.00 0.00 80 1014.7
20210920070944 75 224 0.0 2.0 0.00 0.00 0.00 80 1014.7
20210920065943 75 208 1.0 3.0 0.00 0.00 0.00 80 1014.8
20210920064942 75 211 0.0 2.0 0.00 0.00 0.00 80 1014.9
20210920063958 75 225 0.0 1.0 0.00 0.00 0.00 80 1014.8